Location: Carthage
(33.8834°N, 106.6595°W)
Time: 09:17:41
(UTC+00:00)

IRS-1D - Pass Details

Date: 13 February 2026
Orbit: 736 x 811 km, 98.8° (Epoch: 11 March)

Event Time Altitude Azimuth Distance (km) Brightness Sun altitude
Rises 12:02:22 0° 15° (NNE) 3,285 7.0 -23.5°
Reaches altitude 10° 12:04:44 10° 18° (NNE) 2,341 6.2 -23.0°
Maximum altitude 12:09:53 72° 103° (ESE) 810 3.7 -22.0°
Drops below altitude 10° 12:14:53 10° 187° (S) 2,278 5.9 -20.9°
Sets 12:17:09 0° 189° (S) 3,189 6.6 -20.5°
